QPF
0.00 0.00 0.00 0.00 0.00 0.00 0.00 0.00 0.00 0.00 0.00 0.00 0.00 0.00 0.00 0.00 0.00 0.00 0.00 0.00 0.00 0.00 0.00 0.00 0.00 0.00 0.01 0.06 0.04 0.01 0.03 0.00 0.00 0.01 0.00 0.00 0.00 0.00 0.00 0.00 0.00 0.00 0.00 0.00 0.00
0.00 0.00 0.00 0.00 0.00 0.00 0.00 0.00 0.00 0.00 0.00 0.00 0.00 0.00 0.00 0.00 0.00 0.00 0.00 0.00 0.00 0.00 0.00 0.00 0.00 0.02 0.07 0.09 0.03 0.01 0.09 0.01 0.00 0.00 0.00 0.00 0.00 0.00 0.00 0.00 0.00 0.00 0.00 0.00 0.00
0.00 0.00 0.00 0.00 0.00 0.00 0.00 0.00 0.00 0.00 0.00 0.00 0.00 0.00 0.00 0.00 0.00 0.00 0.00 0.00 0.00 0.00 0.00 0.00 0.00 0.00 0.03 0.03 0.00 0.02 0.00 0.00 0.00 0.00 0.00 0.00 0.00 0.00 0.00 0.00 0.00 0.00 0.00 0.00 0.00
0.00 0.00 0.00 0.00 0.00 0.00 0.00 0.00 0.00 0.00 0.00 0.00 0.00 0.00 0.00 0.00 0.00 0.00 0.00 0.00 0.00 0.00 0.00 0.01 0.00 0.00 0.02 0.03 0.03 0.03 0.00 0.00 0.00 0.01 0.00 0.00 0.00 0.00 0.00 0.00 0.00 0.00 0.00 0.00 0.00
0.00 0.00 0.00 0.00 0.00 0.00 0.00 0.00 0.00 0.00 0.00 0.00 0.00 0.00 0.00 0.00 0.00 0.00 0.00 0.00 0.00 0.01 0.01 0.00 0.01 0.01 0.01 0.05 0.04 0.04 0.02 0.00 0.00 0.01 0.00 0.00 0.00 0.00 0.00 0.00 0.00 0.00 0.00 0.00 0.00
0.00 0.00 0.00 0.00 0.00 0.00 0.00 0.00 0.00 0.00 0.00 0.00 0.00 0.00 0.00 0.00 0.00 0.00 0.00 0.00 0.00 0.02 0.03 0.00 0.00 0.01 0.01 0.02 0.00 0.01 0.01 0.00 0.01 0.01 0.01 0.00 0.00 0.00 0.00 0.00 0.00 0.00 0.00 0.00 0.00
0.00 0.00 0.00 0.00 0.00 0.00 0.00 0.00 0.00 0.00 0.00 0.00 0.00 0.00 0.00 0.00 0.00 0.00 0.00 0.00 0.00 0.00 0.01 0.01 0.00 0.00 0.00 0.01 0.01 0.00 0.00 0.01 0.00 0.00 0.00 0.00 0.00 0.00 0.00 0.00 0.00 0.00 0.00 0.00 0.00
0.00 0.00 0.00 0.00 0.00 0.00 0.00 0.00 0.00 0.00 0.00 0.00 0.00 0.00 0.00 0.00 0.00 0.00 0.00 0.00 0.00 0.01 0.00 0.00 0.00 0.00 0.00 0.01 0.01 0.00 0.00 0.01 0.00 0.00 0.00 0.00 0.00 0.00 0.00 0.00 0.00 0.00 0.00 0.00 0.00
0.00 0.00 0.00 0.00 0.00 0.00 0.00 0.00 0.00 0.00 0.00 0.00 0.00 0.00 0.00 0.00 0.00 0.00 0.00 0.00 0.00 0.00 0.00 0.00 0.00 0.01 0.03 0.01 0.00 0.00 0.00 0.01 0.00 0.00 0.00 0.00 0.00 0.00 0.00 0.00 0.00 0.00 0.00 0.00 0.00
0.00 0.00 0.00 0.00 0.00 0.00 0.00 0.00 0.00 0.00 0.00 0.00 0.00 0.00 0.00 0.00 0.00 0.00 0.00 0.00 0.00 0.00 0.00 0.00 0.00 0.01 0.04 0.02 0.01 0.00 0.00 0.00 0.00 0.00 0.00 0.00 0.00 0.00 0.00 0.00 0.00 0.00 0.00 0.00 0.00
0.00 0.00 0.00 0.00 0.00 0.00 0.00 0.00 0.00 0.00 0.00 0.00 0.00 0.00 0.00 0.00 0.00 0.00 0.00 0.00 0.00 0.00 0.00 0.00 0.00 0.01 0.00 0.00 0.00 0.00 0.00 0.00 0.00 0.00 0.00 0.00 0.00 0.00 0.00 0.00 0.00 0.00 0.00 0.00 0.00
0.00 0.00 0.00 0.00 0.00 0.00 0.00 0.00 0.00 0.00 0.00 0.00 0.00 0.00 0.00 0.00 0.00 0.00 0.00 0.00 0.00 0.00 0.00 0.00 0.00 0.01 0.00 0.00 0.00 0.00 0.00 0.00 0.00 0.00 0.00 0.00 0.00 0.00 0.00 0.00 0.00 0.00 0.00 0.00 0.00
0.00 0.00 0.00 0.00 0.00 0.00 0.00 0.00 0.00 0.00 0.00 0.00 0.00 0.00 0.00 0.00 0.00 0.00 0.00 0.00 0.00 0.00 0.00 0.00 0.00 0.00 0.00 0.00 0.00 0.00 0.00 0.00 0.00 0.00 0.00 0.00 0.00 0.00 0.00 0.00 0.00 0.00 0.00 0.00 0.00
0.00 0.00 0.00 0.00 0.00 0.00 0.00 0.00 0.00 0.00 0.00 0.00 0.00 0.00 0.00 0.00 0.00 0.00 0.00 0.00 0.00 0.00 0.00 0.00 0.00 0.00 0.00 0.00 0.00 0.00 0.00 0.00 0.00 0.00 0.00 0.00 0.00 0.00 0.00 0.00 0.00 0.00 0.00 0.00 0.00
0.00 0.00 0.00 0.00 0.00 0.00 0.00 0.00 0.00 0.00 0.00 0.00 0.00 0.00 0.00 0.00 0.00 0.00 0.00 0.00 0.00 0.00 0.00 0.00 0.00 0.00 0.00 0.00 0.00 0.00 0.00 0.00 0.00 0.00 0.00 0.00 0.00 0.00 0.00 0.00 0.00 0.00 0.00 0.00 0.00
0.00 0.00 0.00 0.00 0.00 0.00 0.00 0.00 0.00 0.00 0.00 0.00 0.00 0.00 0.00 0.00 0.00 0.00 0.00 0.00 0.00 0.00 0.00 0.00 0.00 0.00 0.00 0.00 0.00 0.00 0.00 0.00 0.00 0.00 0.00 0.00 0.00 0.00 0.00 0.00 0.00 0.00 0.00 0.00 0.00
0.00 0.00 0.00 0.00 0.00 0.00 0.00 0.00 0.00 0.00 0.00 0.00 0.00 0.00 0.00 0.00 0.00 0.00 0.00 0.00 0.00 0.00 0.00 0.00 0.00 0.00 0.00 0.00 0.00 0.00 0.00 0.00 0.00 0.00 0.00 0.00 0.00 0.00 0.00 0.00 0.00 0.00 0.00 0.00 0.00
0.00 0.00 0.00 0.00 0.00 0.00 0.00 0.00 0.00 0.00 0.00 0.00 0.00 0.00 0.00 0.00 0.00 0.00 0.00 0.00 0.00 0.00 0.00 0.00 0.00 0.00 0.00 0.00 0.00 0.00 0.00 0.00 0.00 0.00 0.00 0.00 0.00 0.00 0.00 0.00 0.00 0.00 0.00 0.00 0.00
0.00 0.00 0.00 0.00 0.00 0.00 0.00 0.00 0.00 0.00 0.00 0.00 0.00 0.00 0.00 0.00 0.00 0.00 0.00 0.00 0.00 0.00 0.00 0.00 0.00 0.00 0.00 0.00 0.00 0.00 0.00 0.00 0.00 0.00 0.00 0.00 0.00 0.00 0.00 0.00 0.00 0.00 0.00 0.00 0.00
0.00 0.00 0.00 0.00 0.00 0.00 0.00 0.00 0.00 0.00 0.00 0.00 0.00 0.00 0.00 0.00 0.00 0.00 0.00 0.00 0.00 0.00 0.00 0.00 0.00 0.00 0.00 0.00 0.00 0.00 0.00 0.00 0.00 0.00 0.00 0.00 0.00 0.00 0.00 0.00 0.00 0.00 0.00 0.00 0.00
0.00 0.00 0.00 0.00 0.00 0.00 0.00 0.00 0.00 0.00 0.00 0.00 0.00 0.00 0.00 0.00 0.00 0.00 0.00 0.00 0.00 0.00 0.00 0.00 0.00 0.00 0.00 0.00 0.00 0.00 0.00 0.00 0.00 0.00 0.00 0.00 0.00 0.00 0.00 0.00 0.00 0.00 0.00 0.00 0.00
0.00 0.00 0.00 0.00 0.00 0.00 0.00 0.00 0.00 0.00 0.00 0.00 0.00 0.00 0.00 0.00 0.00 0.00 0.00 0.00 0.00 0.00 0.00 0.00 0.00 0.00 0.00 0.00 0.00 0.00 0.00 0.00 0.00 0.00 0.00 0.00 0.00 0.00 0.00 0.00 0.00 0.00 0.00 0.00 0.00
0.00 0.00 0.00 0.00 0.00 0.00 0.00 0.00 0.00 0.00 0.00 0.00 0.00 0.00 0.00 0.00 0.00 0.00 0.00 0.00 0.00 0.00 0.00 0.00 0.00 0.00 0.00 0.00 0.00 0.00 0.00 0.00 0.00 0.00 0.00 0.00 0.00 0.00 0.00 0.00 0.00 0.00 0.00 0.00 0.00
0.00 0.00 0.00 0.00 0.00 0.00 0.00 0.00 0.00 0.00 0.00 0.00 0.00 0.00 0.00 0.00 0.00 0.00 0.00 0.00 0.00 0.00 0.00 0.00 0.00 0.00 0.00 0.00 0.00 0.00 0.00 0.00 0.00 0.00 0.00 0.00 0.00 0.00 0.00 0.00 0.00 0.00 0.00 0.00 0.00
0.00 0.00 0.00 0.00 0.00 0.00 0.00 0.00 0.00 0.00 0.00 0.00 0.00 0.00 0.00 0.00 0.00 0.00 0.00 0.00 0.00 0.00 0.00 0.00 0.00 0.00 0.00 0.00 0.00 0.00 0.00 0.00 0.00 0.00 0.00 0.00 0.00 0.00 0.00 0.00 0.00 0.00 0.00 0.00 0.00
0.00 0.00 0.00 0.00 0.00 0.00 0.00 0.00 0.00 0.00 0.00 0.00 0.00 0.00 0.00 0.00 0.00 0.00 0.00 0.00 0.00 0.00 0.00 0.00 0.00 0.00 0.00 0.00 0.00 0.00 0.00 0.00 0.00 0.00 0.00 0.00 0.00 0.00 0.00 0.00 0.00 0.00 0.00 0.00 0.00
0.00 0.00 0.00 0.00 0.00 0.00 0.00 0.00 0.00 0.00 0.00 0.00 0.00 0.00 0.00 0.00 0.00 0.00 0.00 0.00 0.00 0.00 0.00 0.00 0.00 0.00 0.00 0.00 0.00 0.00 0.00 0.00 0.00 0.00 0.00 0.00 0.00 0.00 0.00 0.00 0.00 0.00 0.00 0.00 0.00
MSLP
1017.28 1016.95 1016.64 1016.24 1015.84 1015.52 1015.29 1015.06 1014.82 1014.54 1014.33 1014.16 1013.86 1013.41 1012.88 1012.45 1011.67 1011.57 1010.30 1007.96 1007.70 1007.43 1007.77 1007.47 1007.43 1007.43 1007.26 1008.16 1008.87 1009.42 1010.16 1010.10 1008.75 1007.31 1006.27 1005.40 1005.31 1005.70 1005.85 1006.71 1007.09 1007.53 1008.04 1009.09 1010.36
1017.34 1016.93 1016.54 1016.17 1015.78 1015.41 1015.13 1014.91 1014.72 1014.50 1014.28 1014.02 1013.67 1013.22 1012.69 1012.35 1011.72 1010.16 1007.47 1007.12 1007.19 1007.52 1007.55 1007.43 1007.57 1007.49 1008.33 1008.88 1009.39 1009.24 1010.33 1009.12 1007.14 1006.05 1005.35 1005.07 1004.91 1005.30 1006.25 1007.22 1007.63 1007.99 1008.67 1009.27 1010.15
1017.31 1016.89 1016.51 1016.19 1015.72 1015.30 1015.00 1014.75 1014.52 1014.25 1014.04 1013.82 1013.54 1013.05 1012.54 1012.29 1011.15 1008.02 1006.66 1006.92 1007.37 1007.41 1007.27 1007.15 1007.66 1008.07 1009.06 1009.34 1010.20 1010.15 1009.71 1008.22 1006.63 1005.29 1004.52 1004.79 1005.14 1005.14 1006.20 1007.16 1007.18 1007.93 1008.70 1009.32 1010.41
1017.21 1016.77 1016.45 1016.18 1015.71 1015.21 1014.77 1014.53 1014.39 1014.13 1013.82 1013.51 1013.17 1012.73 1012.25 1011.91 1009.73 1006.88 1006.65 1007.26 1007.37 1007.03 1007.00 1007.17 1007.91 1008.83 1009.66 1009.61 1010.58 1010.73 1008.99 1008.46 1006.83 1005.06 1004.23 1004.60 1004.89 1005.49 1005.87 1006.37 1007.03 1007.69 1008.32 1009.03 1010.16
1017.19 1016.73 1016.40 1016.15 1015.65 1015.16 1014.56 1014.28 1014.21 1013.94 1013.62 1013.40 1012.99 1012.52 1011.94 1010.73 1008.00 1006.46 1007.08 1007.28 1007.14 1006.98 1007.23 1007.49 1007.67 1008.67 1009.03 1009.77 1009.79 1009.68 1008.07 1006.86 1005.95 1005.31 1004.02 1003.87 1004.54 1005.22 1006.00 1006.51 1007.26 1007.94 1008.71 1009.19 1009.63
1017.15 1016.66 1016.32 1015.97 1015.46 1014.99 1014.43 1013.92 1013.69 1013.66 1013.24 1013.00 1012.74 1012.46 1011.68 1009.27 1006.05 1006.18 1006.87 1007.28 1006.78 1006.91 1007.07 1006.98 1007.75 1008.30 1009.02 1009.56 1009.44 1008.04 1007.40 1006.22 1005.22 1004.82 1003.65 1003.84 1004.70 1004.81 1006.38 1006.69 1007.47 1007.86 1008.49 1008.93 1009.31
1017.03 1016.52 1016.10 1015.76 1015.31 1014.74 1014.13 1013.56 1013.16 1013.03 1012.78 1012.63 1012.52 1012.17 1010.90 1007.33 1005.72 1006.10 1006.49 1006.77 1006.46 1006.26 1006.69 1006.49 1006.95 1007.83 1008.19 1008.49 1007.79 1007.12 1007.02 1005.90 1004.44 1004.29 1003.63 1003.72 1005.05 1005.20 1005.62 1006.49 1007.16 1007.69 1008.00 1008.19 1008.49
1017.00 1016.51 1016.02 1015.50 1015.03 1014.42 1013.68 1013.13 1012.60 1012.33 1012.31 1012.20 1012.21 1011.78 1009.38 1005.64 1005.73 1006.28 1006.34 1006.50 1006.40 1006.12 1006.04 1005.90 1006.47 1007.33 1007.41 1006.89 1006.80 1006.64 1006.09 1005.01 1003.50 1003.70 1003.05 1003.54 1004.27 1004.90 1005.37 1006.06 1006.72 1007.06 1007.49 1007.64 1007.68
1016.86 1016.37 1015.85 1015.28 1014.81 1014.08 1013.13 1012.34 1011.82 1011.58 1011.89 1011.88 1011.86 1011.06 1008.21 1005.30 1005.56 1005.17 1005.51 1005.72 1005.79 1006.08 1006.14 1005.78 1006.85 1007.09 1007.07 1007.23 1006.56 1006.24 1005.56 1004.61 1003.32 1002.73 1002.81 1003.47 1003.83 1004.28 1004.95 1005.45 1005.91 1006.23 1006.55 1006.86 1006.92
1016.78 1016.23 1015.70 1015.15 1014.62 1013.76 1012.71 1011.37 1011.04 1011.17 1011.68 1011.59 1011.01 1010.52 1007.25 1005.12 1004.53 1004.64 1004.88 1005.16 1005.48 1005.67 1005.80 1005.97 1006.39 1006.64 1007.27 1007.34 1006.94 1006.31 1005.67 1004.55 1002.94 1001.91 1002.43 1003.16 1003.18 1003.89 1004.55 1004.89 1004.93 1005.41 1005.59 1006.07 1006.19
1016.44 1015.88 1015.30 1014.81 1014.44 1013.89 1012.60 1011.14 1011.06 1011.08 1010.57 1009.40 1008.73 1007.53 1005.66 1004.65 1004.06 1004.28 1004.41 1005.06 1005.23 1005.67 1005.99 1005.89 1006.67 1006.62 1006.10 1006.19 1005.55 1005.43 1005.15 1004.51 1002.50 1001.77 1002.16 1002.31 1002.71 1003.40 1003.61 1004.30 1004.46 1004.76 1005.00 1004.99 1005.14
1016.18 1015.52 1014.87 1014.22 1013.87 1013.71 1013.66 1012.13 1009.65 1008.89 1008.77 1007.68 1007.10 1006.52 1005.17 1005.23 1004.87 1004.00 1004.00 1005.14 1005.42 1005.92 1006.09 1006.58 1006.30 1005.72 1005.35 1004.80 1004.77 1004.41 1004.39 1003.73 1002.11 1001.55 1002.12 1002.34 1002.54 1002.52 1003.17 1003.13 1002.82 1003.31 1003.93 1004.07 1004.41
1016.02 1015.25 1014.42 1013.57 1013.03 1013.12 1012.53 1010.41 1008.18 1008.46 1008.51 1006.35 1005.50 1005.25 1004.69 1004.75 1004.47 1003.88 1003.76 1004.42 1005.07 1005.77 1006.10 1006.53 1005.00 1004.77 1004.69 1003.85 1004.04 1003.75 1003.63 1003.41 1003.17 1002.68 1002.56 1002.78 1003.04 1002.72 1002.31 1001.99 1002.20 1002.41 1002.63 1003.02 1003.41
1015.86 1015.24 1014.47 1013.30 1012.75 1012.76 1011.11 1008.72 1008.42 1008.35 1008.50 1006.03 1004.72 1003.50 1003.77 1003.96 1003.99 1003.02 1003.29 1004.22 1004.99 1005.37 1005.73 1005.64 1004.16 1004.18 1003.78 1003.50 1003.13 1003.24 1002.85 1003.06 1003.29 1003.72 1003.97 1003.80 1004.19 1003.44 1002.64 1002.34 1001.55 1001.52 1001.68 1002.05 1002.58
1015.69 1015.17 1014.56 1014.36 1013.83 1012.39 1009.52 1008.48 1007.95 1007.90 1007.78 1004.26 1003.51 1001.95 1002.52 1003.69 1003.19 1002.66 1002.94 1003.86 1004.59 1005.08 1005.69 1004.73 1004.37 1004.04 1003.59 1003.02 1002.82 1002.70 1002.44 1003.33 1003.81 1004.52 1004.91 1004.83 1005.06 1003.28 1002.72 1002.61 1001.63 1000.41 1000.84 1001.04 1001.31
1015.20 1014.80 1014.65 1014.17 1013.95 1010.90 1009.68 1008.76 1008.32 1009.01 1006.38 1003.77 1002.50 1002.61 1003.30 1003.50 1003.22 1003.09 1003.40 1003.79 1004.13 1005.02 1005.28 1004.97 1003.90 1003.93 1002.99 1002.42 1002.46 1002.70 1002.97 1003.99 1005.01 1006.06 1006.84 1005.52 1005.85 1003.77 1002.98 1001.25 1000.42 1000.01 999.87 1000.08 1000.67
1014.34 1014.15 1014.33 1013.67 1011.62 1010.09 1009.60 1009.51 1009.91 1008.96 1005.42 1003.74 1002.95 1002.87 1003.24 1003.69 1003.58 1003.66 1003.87 1004.27 1004.89 1005.77 1006.08 1005.30 1004.13 1003.28 1003.04 1002.81 1002.28 1002.79 1004.39 1005.68 1007.06 1007.74 1007.60 1006.23 1005.88 1004.00 1001.54 1000.61 999.92 999.09 998.97 999.33 999.32
1013.49 1012.54 1012.18 1011.58 1010.57 1010.44 1010.31 1010.65 1010.09 1007.52 1005.59 1003.68 1003.10 1003.21 1003.49 1003.55 1003.55 1003.66 1004.15 1004.58 1004.49 1005.03 1005.80 1005.89 1004.53 1003.17 1002.46 1002.66 1002.98 1003.34 1004.65 1006.18 1007.39 1008.55 1007.77 1006.59 1005.37 1002.88 1001.05 999.59 999.17 998.83 998.43 997.92 998.79
1013.01 1011.94 1011.76 1009.48 1010.10 1010.97 1011.25 1011.15 1009.14 1007.05 1005.27 1004.33 1003.11 1003.63 1003.81 1003.56 1003.67 1003.84 1003.89 1004.03 1003.73 1004.10 1005.10 1005.31 1004.52 1002.60 1002.37 1001.95 1002.57 1003.07 1004.06 1004.29 1006.69 1008.03 1008.28 1006.92 1005.02 1002.58 1001.44 1000.11 999.58 999.33 999.12 999.13 999.38
1013.70 1012.58 1010.48 1008.33 1009.33 1010.36 1011.34 1010.78 1008.53 1006.25 1005.28 1004.52 1004.32 1003.68 1004.20 1004.01 1003.90 1003.72 1003.70 1002.53 1002.82 1002.97 1003.23 1004.01 1004.49 1003.31 1002.02 1001.98 1001.83 1002.14 1002.80 1004.60 1006.59 1007.90 1008.22 1007.30 1006.39 1005.31 1003.67 1002.62 1000.51 1000.03 999.52 999.38 999.66
1013.79 1012.34 1008.58 1008.00 1008.93 1010.70 1011.44 1010.14 1007.91 1006.02 1005.60 1004.97 1004.26 1003.78 1003.33 1003.65 1003.63 1003.58 1003.28 1002.54 1002.10 1002.20 1002.43 1003.51 1004.41 1003.48 1003.01 1002.36 1002.20 1002.14 1002.86 1004.17 1005.78 1006.99 1007.69 1007.66 1007.10 1005.97 1005.18 1004.05 1002.59 1001.80 1001.30 1001.17 1001.07
1014.69 1012.55 1008.74 1008.07 1009.92 1010.91 1010.99 1009.11 1007.56 1006.25 1005.56 1005.32 1003.99 1003.20 1003.02 1003.20 1003.39 1003.33 1003.01 1002.49 1002.12 1001.79 1002.26 1002.79 1004.10 1004.42 1003.66 1002.16 1001.72 1002.00 1003.02 1004.20 1005.98 1006.68 1007.14 1006.94 1006.68 1006.20 1005.56 1005.00 1003.76 1003.13 1003.20 1002.71 1003.01
1015.92 1012.91 1008.65 1008.46 1010.03 1010.82 1009.86 1008.76 1007.64 1006.62 1005.57 1004.98 1003.97 1003.27 1003.18 1003.36 1003.59 1003.21 1002.69 1002.03 1001.91 1002.17 1002.52 1002.97 1004.26 1004.99 1004.19 1003.09 1002.46 1002.79 1002.96 1003.56 1004.79 1006.00 1006.70 1007.17 1006.52 1005.90 1005.43 1004.75 1005.38 1005.12 1004.69 1004.36 1004.54
1016.25 1013.87 1010.82 1009.74 1010.00 1010.24 1010.10 1008.98 1007.54 1005.61 1004.85 1004.09 1003.80 1003.25 1003.24 1003.41 1003.68 1003.80 1003.17 1002.48 1002.19 1002.44 1002.43 1002.83 1004.74 1005.42 1005.43 1004.72 1003.99 1003.52 1003.20 1003.34 1004.29 1005.54 1006.34 1006.15 1005.77 1005.58 1005.36 1005.14 1005.43 1005.43 1005.44 1005.52 1005.30
1015.95 1014.52 1012.81 1011.73 1011.05 1010.54 1010.05 1008.66 1007.43 1006.16 1004.23 1003.51 1003.15 1002.84 1003.15 1003.79 1003.81 1004.00 1003.78 1003.14 1003.11 1003.31 1003.30 1003.85 1005.06 1005.13 1004.95 1004.50 1003.85 1003.49 1003.27 1003.34 1004.11 1004.74 1005.41 1005.78 1006.10 1005.71 1005.85 1006.01 1005.86 1005.57 1005.43 1004.99 1004.87
1015.90 1015.23 1013.94 1013.07 1011.86 1010.92 1009.58 1008.29 1007.16 1005.65 1004.99 1003.68 1003.14 1002.58 1002.61 1003.54 1003.88 1004.47 1004.53 1004.49 1004.28 1004.31 1004.76 1005.26 1005.79 1005.84 1005.58 1004.59 1004.12 1003.77 1003.41 1003.59 1004.17 1004.78 1005.31 1005.73 1006.25 1005.75 1006.08 1006.71 1006.80 1007.23 1006.47 1006.85 1006.33
1016.63 1015.50 1015.08 1013.52 1012.48 1011.30 1010.19 1008.99 1007.00 1005.26 1004.07 1003.62 1002.95 1002.98 1003.32 1003.49 1003.58 1003.91 1004.37 1004.63 1004.79 1005.00 1005.43 1006.01 1006.58 1007.27 1006.62 1005.42 1004.76 1004.54 1003.74 1004.11 1004.96 1005.72 1005.88 1005.99 1006.29 1006.55 1007.05 1007.05 1007.04 1007.32 1007.43 1007.39 1007.11
Thickness
5763 5767 5770 5774 5778 5782 5785 5788 5791 5794 5797 5799 5803 5808 5813 5819 5828 5832 5836 5862 5869 5878 5878 5880 5877 5874 5878 5860 5858 5853 5815 5799 5814 5831 5841 5862 5853 5865 5871 5853 5855 5855 5849 5849 5847
5763 5767 5770 5774 5779 5783 5787 5790 5793 5795 5798 5801 5805 5810 5816 5820 5828 5837 5869 5875 5878 5879 5876 5869 5862 5870 5849 5849 5849 5839 5807 5820 5850 5860 5854 5865 5867 5864 5852 5843 5840 5844 5848 5851 5848
5763 5767 5771 5774 5780 5785 5788 5792 5795 5798 5801 5803 5807 5812 5818 5822 5829 5849 5877 5877 5878 5881 5882 5882 5873 5862 5844 5848 5839 5831 5816 5844 5855 5871 5881 5867 5865 5873 5848 5833 5847 5838 5842 5846 5840
5764 5768 5771 5774 5780 5785 5790 5794 5796 5799 5802 5807 5811 5816 5821 5825 5810 5865 5877 5876 5879 5884 5883 5876 5863 5845 5837 5836 5838 5819 5842 5845 5858 5877 5884 5867 5871 5859 5861 5856 5864 5859 5857 5850 5840
5764 5769 5772 5775 5780 5786 5792 5796 5797 5800 5804 5808 5813 5818 5825 5826 5838 5876 5874 5877 5882 5885 5876 5864 5854 5845 5842 5838 5840 5828 5847 5864 5872 5875 5890 5890 5873 5863 5859 5868 5867 5861 5855 5849 5845
5764 5769 5773 5777 5782 5788 5793 5799 5802 5803 5808 5811 5816 5820 5825 5818 5879 5880 5877 5878 5881 5881 5875 5878 5863 5862 5848 5838 5837 5859 5858 5866 5876 5879 5894 5882 5874 5875 5864 5872 5861 5859 5852 5850 5848
5766 5771 5775 5779 5784 5790 5796 5801 5806 5808 5812 5815 5818 5824 5824 5839 5883 5882 5881 5881 5887 5887 5871 5889 5886 5868 5859 5844 5864 5866 5844 5865 5878 5879 5883 5889 5860 5859 5877 5873 5861 5857 5857 5858 5857
5765 5770 5776 5782 5786 5792 5799 5805 5811 5814 5815 5818 5820 5824 5824 5882 5884 5880 5883 5881 5889 5892 5888 5896 5893 5874 5868 5878 5868 5854 5857 5848 5882 5880 5893 5884 5841 5870 5881 5872 5862 5862 5862 5862 5864
5766 5771 5777 5783 5788 5795 5803 5811 5816 5819 5818 5820 5822 5825 5826 5886 5872 5888 5890 5879 5885 5887 5888 5896 5880 5863 5864 5844 5837 5847 5834 5848 5866 5891 5885 5876 5857 5876 5883 5876 5869 5869 5869 5867 5867
5767 5772 5778 5783 5788 5797 5807 5819 5823 5823 5820 5822 5827 5817 5847 5856 5880 5889 5895 5891 5878 5880 5876 5872 5863 5850 5841 5831 5810 5829 5832 5849 5861 5889 5886 5869 5869 5876 5880 5877 5878 5878 5879 5873 5872
5770 5775 5781 5786 5790 5795 5808 5820 5817 5814 5824 5826 5830 5837 5857 5878 5891 5882 5893 5883 5879 5870 5846 5862 5837 5822 5847 5851 5862 5856 5845 5841 5875 5896 5883 5880 5876 5874 5881 5879 5877 5879 5881 5882 5880
5773 5779 5785 5792 5796 5798 5799 5809 5823 5835 5810 5843 5848 5851 5870 5873 5854 5874 5896 5861 5857 5836 5853 5839 5823 5856 5864 5871 5863 5862 5848 5847 5880 5898 5885 5880 5876 5887 5883 5885 5891 5888 5885 5889 5886
5773 5781 5790 5798 5803 5804 5808 5821 5847 5843 5811 5838 5856 5853 5861 5870 5857 5864 5883 5869 5854 5841 5842 5825 5850 5871 5866 5867 5859 5862 5855 5856 5857 5875 5882 5873 5858 5872 5890 5897 5899 5897 5900 5897 5889
5773 5780 5788 5800 5807 5805 5815 5840 5844 5846 5783 5817 5844 5863 5873 5873 5854 5893 5892 5873 5855 5840 5845 5841 5873 5865 5861 5859 5870 5847 5878 5873 5863 5847 5821 5864 5807 5853 5877 5876 5892 5891 5898 5898 5895
5772 5779 5786 5790 5793 5806 5832 5844 5851 5840 5757 5848 5852 5898 5883 5858 5869 5875 5896 5874 5845 5845 5848 5840 5852 5849 5848 5858 5871 5854 5883 5871 5867 5848 5840 5843 5818 5843 5869 5860 5877 5899 5894 5903 5904
5772 5778 5782 5789 5791 5817 5830 5839 5836 5776 5761 5835 5862 5852 5850 5857 5862 5874 5872 5880 5872 5847 5850 5846 5875 5867 5865 5878 5878 5883 5869 5852 5842 5821 5792 5830 5816 5837 5846 5868 5888 5901 5900 5906 5904
5774 5778 5780 5787 5803 5821 5829 5820 5768 5751 5830 5832 5839 5850 5841 5839 5846 5853 5847 5841 5824 5809 5810 5834 5850 5867 5874 5855 5871 5869 5827 5782 5781 5776 5777 5825 5812 5826 5873 5884 5892 5901 5903 5904 5913
5775 5786 5791 5799 5810 5814 5814 5785 5756 5793 5813 5847 5844 5840 5830 5839 5839 5843 5837 5822 5842 5836 5808 5801 5800 5853 5874 5858 5843 5841 5826 5782 5765 5760 5787 5820 5805 5836 5885 5900 5904 5907 5908 5916 5910
5771 5784 5788 5808 5808 5803 5788 5753 5765 5792 5824 5824 5839 5822 5820 5834 5837 5832 5825 5827 5840 5841 5813 5793 5807 5866 5869 5876 5862 5843 5819 5844 5802 5794 5773 5793 5824 5865 5874 5882 5896 5893 5898 5895 5897
5753 5767 5784 5808 5804 5793 5766 5757 5781 5818 5822 5821 5805 5824 5805 5817 5819 5817 5816 5849 5843 5852 5854 5832 5804 5845 5867 5871 5870 5855 5862 5816 5791 5777 5767 5780 5789 5794 5830 5843 5878 5884 5890 5892 5893
5744 5755 5790 5802 5797 5766 5744 5759 5791 5816 5817 5808 5803 5812 5819 5815 5819 5818 5820 5845 5854 5853 5852 5835 5817 5835 5849 5841 5835 5842 5829 5829 5809 5787 5763 5757 5775 5819 5821 5837 5853 5867 5880 5874 5878
5719 5734 5779 5790 5749 5741 5745 5776 5795 5799 5808 5803 5818 5823 5820 5819 5813 5817 5818 5832 5852 5853 5840 5843 5806 5795 5820 5854 5867 5858 5841 5817 5779 5786 5777 5773 5774 5825 5829 5836 5849 5855 5857 5864 5858
5699 5718 5770 5772 5726 5729 5751 5769 5781 5783 5790 5796 5806 5818 5820 5813 5802 5816 5822 5847 5850 5843 5832 5837 5796 5768 5788 5819 5839 5829 5836 5833 5806 5786 5779 5763 5770 5827 5829 5836 5834 5831 5838 5842 5841
5692 5701 5730 5744 5737 5740 5742 5749 5762 5795 5794 5799 5800 5811 5806 5802 5805 5802 5810 5834 5844 5840 5845 5833 5792 5781 5760 5788 5810 5812 5820 5826 5808 5778 5775 5777 5794 5813 5819 5825 5827 5828 5830 5829 5831
5688 5696 5712 5705 5721 5734 5736 5748 5750 5759 5795 5798 5791 5799 5797 5787 5788 5789 5802 5815 5826 5825 5824 5815 5792 5801 5795 5802 5814 5814 5817 5818 5806 5802 5787 5788 5785 5802 5810 5812 5820 5824 5827 5830 5827
5682 5682 5692 5694 5709 5721 5721 5741 5747 5763 5770 5777 5780 5791 5793 5778 5782 5780 5787 5791 5798 5809 5806 5795 5779 5789 5788 5807 5803 5800 5811 5808 5803 5796 5793 5784 5779 5805 5806 5803 5803 5799 5804 5804 5810
5670 5679 5679 5689 5697 5706 5716 5729 5748 5767 5781 5783 5786 5780 5771 5781 5794 5800 5799 5797 5800 5799 5791 5785 5768 5755 5755 5785 5784 5765 5795 5793 5784 5783 5786 5776 5786 5788 5783 5786 5789 5792 5792 5792 5792